Location: Bieg
(49.3499°N, 10.3835°E)
Time: 00:02:47
(UTC+00:00)

Cosmos 2151 Rocket - Pass Details

Date: 23 May 2024
Orbit: 614 x 639 km, 82.5° (Epoch: 15 June)

Event Time Altitude Azimuth Distance (km) Brightness Sun altitude
Rises 02:34:05 0° 346° (NNW) 2,944 7.5 -7.3°
Reaches altitude 10° 02:36:23 10° 341° (NNW) 2,027 6.6 -7.0°
Maximum altitude 02:40:44 52° 266° (W) 782 3.8 -6.5°
Drops below altitude 10° 02:45:02 10° 190° (S) 1,995 5.7 -6.0°
Sets 02:47:17 0° 185° (S) 2,893 6.6 -5.7°
